This is the latest recevied weather packets stored in our database for station/object N5XJB. If no packets are shown the sender has not sent any weather packets the latest 1 day(s).
| Time | Temp. | Humidity | Pressure | Rain* | Wind** | Luminosity | Snow |
|---|---|---|---|---|---|---|---|
| 1778003068 | 27.22° C | 80% | 1010.4 hPa | 0 mm | 0 m/s | 279 W/m² | - |
| 1778002764 | 26.67° C | 81% | 1010.7 hPa | 0 mm | 0.89 m/s, 306° | 259 W/m² | - |
| 1778002460 | 27.22° C | 81% | 1010.4 hPa | 0 mm | 0.89 m/s, 48° | 101 W/m² | - |
| 1778002158 | 27.22° C | 79% | 1010.4 hPa | 0 mm | 0.89 m/s, 18° | 155 W/m² | - |
| 1778001856 | 27.22° C | 79% | 1010.4 hPa | 0 mm | 0.89 m/s, 18° | 155 W/m² | - |
| 1778001555 | 27.22° C | 79% | 1010.4 hPa | 0 mm | 0.89 m/s, 222° | 246 W/m² | - |
| 1778001252 | 27.78° C | 79% | 1010.7 hPa | 0 mm | 0 m/s | 234 W/m² | - |
| 1778000949 | 27.22° C | 79% | 1010.7 hPa | 0 mm | 1.34 m/s, 282° | 295 W/m² | - |
| 1778000645 | 27.22° C | 79% | 1010.7 hPa | 0 mm | 0.89 m/s, 145° | 371 W/m² | - |
| 1778000341 | 27.22° C | 80% | 1010.7 hPa | 0 mm | 0.89 m/s, 65° | 235 W/m² | - |
| 1778000036 | 26.67° C | 81% | 1010.7 hPa | 0 mm | 0 m/s | 286 W/m² | - |
| 1777999732 | 26.67° C | 81% | 1010.7 hPa | 0 mm | 0 m/s | 267 W/m² | - |
| 1777999429 | 26.11° C | 82% | 1010.7 hPa | 0 mm | 0.89 m/s, 318° | 220 W/m² | - |
| 1777999127 | 26.11° C | 83% | 1010.7 hPa | 0 mm | 0.89 m/s, 288° | 224 W/m² | - |
| 1777998826 | 26.11° C | 83% | 1010.7 hPa | 0 mm | 0.89 m/s, 170° | 209 W/m² | - |
| 1777998524 | 26.11° C | 84% | 1010.7 hPa | 0 mm | 1.34 m/s, 252° | 172 W/m² | - |
| 1777998220 | 26.11° C | 84% | 1010.7 hPa | 0 mm | 0.89 m/s, 292° | 130 W/m² | - |
| 1777997917 | 26.11° C | 84% | 1010.4 hPa | 0 mm | 1.34 m/s, 120° | 135 W/m² | - |
| 1777997614 | 26.11° C | 83% | 1010.7 hPa | 0 mm | 0.45 m/s, 264° | 90 W/m² | - |
| 1777997311 | 26.11° C | 83% | 1010.7 hPa | 0 mm | 0.89 m/s, 293° | 133 W/m² | - |
| 1777997009 | 26.11° C | 83% | 1010.4 hPa | 0 mm | 1.34 m/s, 174° | 172 W/m² | - |
| 1777996705 | 25.56° C | 84% | 1010.7 hPa | 0 mm | 0 m/s | 265 W/m² | - |
| 1777996401 | 25.56° C | 84% | 1010.4 hPa | 0 mm | 1.34 m/s, 276° | 163 W/m² | - |
| 1777996098 | 25.56° C | 85% | 1010.4 hPa | 0 mm | 0 m/s | 216 W/m² | - |
| 1777995789 | 25.56° C | 85% | 1010.4 hPa | 0 mm | 0.89 m/s, 18° | 182 W/m² | - |
* Rain latest hour (hover to see other rain measurements)
** Current wind speed in m/s (hover to see current wind gust speed)